Location: Berg
(47.2344°N, 9.5296°E)
Time: 07:10:45
(UTC+00:00)

Envisat - Pass Details

Date: 25 September 2021
Orbit: 764 x 766 km, 98.2° (Epoch: 25 October)

Event Time Altitude Azimuth Distance (km) Brightness Sun altitude
Rises 03:56:21 0° 20° (NNE) 3,243 6.8 -13.7°
Reaches altitude 10° 03:58:50 10° 29° (NNE) 2,312 6.1 -13.3°
Maximum altitude 04:03:32 36° 96° (E) 1,190 4.7 -12.5°
Drops below altitude 10° 04:08:11 10° 163° (SSE) 2,295 5.5 -11.7°
Sets 04:10:39 0° 172° (S) 3,216 6.2 -11.3°
